Wind_Speed
15 15 18 19 18 18 17 15 14 16 19 22 23 23 25 27 28 28 29 26 23 21 20 21 22 22 25 24 24 26 30 26 22 21 26 20 14 13 12 8 14 10 11 14
17 17 18 19 19 17 17 15 15 15 21 22 22 22 24 28 30 31 32 30 25 22 19 19 22 22 23 24 24 27 35 33 23 23 20 17 15 14 13 13 11 13 10 15
17 17 18 17 17 18 17 16 15 16 21 22 22 22 26 30 32 31 33 32 27 22 18 15 21 22 22 23 25 27 32 30 24 16 13 14 18 16 15 14 10 15 14 15
15 15 16 15 14 15 15 15 15 16 20 22 22 24 28 31 34 31 32 31 28 24 19 16 16 20 20 21 23 24 27 35 31 24 28 26 19 19 21 20 15 17 16 20
16 15 14 13 13 13 14 13 13 15 19 21 22 25 28 31 34 30 30 34 30 27 22 18 20 20 19 20 20 20 22 28 34 31 29 28 29 25 21 17 19 20 20 26
17 15 14 14 12 12 13 12 12 15 19 20 23 24 27 29 36 32 30 28 28 26 26 21 20 27 24 20 18 17 15 26 24 24 28 26 26 20 20 21 21 21 24 23
15 14 16 16 15 13 12 13 13 16 20 22 22 23 25 28 37 34 31 31 28 25 23 22 22 22 29 24 23 22 20 21 22 22 22 25 22 20 19 20 22 27 27 26
15 15 14 15 14 13 13 14 13 16 20 22 23 23 24 26 32 39 33 30 30 29 27 27 27 26 26 29 31 30 28 26 29 28 25 20 23 20 20 24 28 27 26 30
14 14 14 12 10 12 12 14 13 14 20 23 24 23 24 26 30 35 39 33 33 31 30 29 33 22 21 28 29 24 22 20 19 22 22 20 24 26 23 25 24 29 32 31
16 14 14 15 12 11 12 14 14 14 19 23 25 25 24 26 29 31 32 33 31 28 28 24 28 21 24 27 25 22 23 23 25 25 29 23 32 30 31 30 24 30 33 29
18 16 13 14 16 12 12 14 16 13 15 22 26 27 25 26 29 32 33 30 32 33 29 25 23 18 23 22 24 24 24 24 23 27 26 25 30 27 28 28 30 29 26 25
18 17 16 14 16 17 13 15 17 15 13 20 25 27 27 26 27 29 32 33 31 31 30 30 27 27 27 26 20 24 23 22 20 21 20 22 23 23 25 28 27 26 24 25
20 19 18 17 16 16 14 14 17 18 15 16 23 28 29 29 28 28 29 30 32 34 35 33 32 30 27 24 24 23 23 23 25 23 26 26 26 26 29 30 29 29 30 30
23 21 19 18 18 15 13 13 14 17 16 15 19 24 30 31 30 30 29 28 28 29 29 30 29 29 26 27 27 23 24 25 28 28 28 28 27 28 30 30 30 31 32 34
26 23 20 18 19 16 13 14 14 16 15 15 18 21 25 31 33 33 32 31 29 28 28 28 25 22 22 24 24 26 26 27 26 23 30 29 32 33 33 33 34 34 33 32
29 25 22 19 20 18 16 14 15 15 15 15 16 18 20 26 31 34 35 35 33 32 31 32 30 27 27 28 29 28 27 27 26 27 28 30 32 34 33 33 35 33 31 30
30 27 24 22 21 21 18 15 16 15 14 14 16 18 18 20 25 29 33 34 35 34 34 34 33 31 29 29 29 27 28 30 31 31 30 32 32 32 33 33 31 30 30 28
30 28 26 24 23 23 20 18 16 17 16 15 14 14 16 18 20 22 24 27 29 31 33 32 33 31 32 30 26 27 29 30 31 34 35 32 33 30 28 29 30 29 26 26
31 29 27 25 25 25 24 21 17 18 18 18 17 16 17 20 20 20 21 21 22 24 25 25 25 25 24 21 21 24 25 27 27 26 24 25 26 27 30 29 27 27 25 23
31 29 27 25 25 27 27 23 19 18 19 19 18 16 15 16 19 19 19 20 21 19 20 21 20 20 19 19 22 23 22 22 22 22 21 22 23 24 24 25 27 27 25 25
29 27 26 26 26 27 28 26 21 18 19 21 19 17 15 14 17 19 20 19 18 18 21 20 20 21 20 21 22 22 22 22 22 22 22 21 21 22 22 24 25 25 24 22
28 27 27 25 26 27 29 28 24 21 20 21 19 18 16 16 16 17 17 19 19 19 18 20 20 20 20 21 22 22 22 22 22 22 22 22 21 21 20 20 21 22 23 25
28 26 26 25 25 28 29 28 23 22 18 19 20 19 17 17 16 16 17 18 19 17 17 20 19 20 20 20 21 22 22 21 21 20 21 21 22 20 22 20 24 23 25 26
26 25 24 23 23 24 26 29 26 22 21 20 21 21 20 18 16 18 17 16 15 16 19 19 20 21 22 22 21 17 20 20 20 23 22 25 25 21 19 21 22 22 23 23
24 22 20 19 18 20 25 27 26 24 24 20 21 21 20 21 19 17 18 16 17 17 20 18 21 20 21 22 22 22 23 23 23 24 23 24 22 20 21 23 25 27 28 27
23 20 18 16 15 20 23 24 25 23 26 21 20 21 19 17 13 10 10 12 16 18 18 21 20 19 20 21 21 22 23 24 25 24 23 23 23 25 25 24 25 26 28 30
25 22 19 16 15 13 18 24 25 21 22 24 18 18 17 14 12 13 13 14 14 14 17 20 21 20 19 22 21 20 20 20 20 22 24 23 24 24 25 30 33 36 37 37
Wind_Direction
251 258 257 255 254 256 259 257 255 249 238 233 226 218 218 220 220 213 212 218 220 215 217 217 214 213 212 206 210 205 185 186 198 189 209 212 199 214 220 242 284 284 262 293
257 257 258 257 253 253 255 258 255 257 236 228 224 217 213 219 217 213 207 211 215 217 214 216 210 201 208 204 195 199 193 194 192 205 203 214 222 222 235 232 242 272 283 285
251 254 256 256 253 253 251 256 263 263 231 221 218 210 208 214 217 215 206 207 210 215 215 216 217 203 202 204 202 195 201 198 198 216 218 220 224 231 234 242 248 273 292 277
248 249 252 254 253 246 251 254 269 251 224 215 213 210 209 211 214 213 207 204 210 205 211 211 214 209 207 208 208 208 206 204 207 202 213 219 233 247 249 254 258 269 270 293
244 245 246 254 252 247 253 257 255 235 215 209 209 209 212 210 209 202 209 209 206 206 198 202 212 207 210 215 210 213 216 213 213 217 221 234 240 251 255 256 263 281 299 299
237 240 238 246 249 249 250 251 242 223 209 206 207 211 213 210 201 197 205 206 210 208 212 208 207 209 202 204 210 212 219 221 221 231 239 245 243 254 259 262 270 285 291 292
237 239 237 245 252 255 251 240 236 219 209 207 208 211 212 209 202 196 198 201 200 207 210 211 210 214 210 210 209 212 216 217 221 222 229 239 247 252 262 266 273 279 286 292
235 235 237 243 251 247 245 231 231 220 211 206 209 211 212 206 204 198 201 199 193 195 196 200 203 214 216 217 223 226 229 228 230 230 237 242 256 260 266 264 281 283 282 295
238 238 235 234 246 241 242 228 229 223 216 208 206 211 210 203 201 201 206 206 204 206 187 197 210 214 211 228 224 231 238 251 266 243 237 246 255 255 261 265 270 274 279 288
235 235 234 231 239 242 239 232 228 230 219 210 207 210 209 205 203 201 202 205 209 213 208 207 226 215 210 242 242 253 255 258 264 256 256 249 253 259 262 264 262 266 279 278
232 233 235 236 236 246 241 234 228 230 220 211 207 210 210 208 205 203 206 204 210 217 222 226 244 246 255 250 250 257 256 253 251 247 251 249 257 261 260 259 263 268 274 274
237 237 238 237 237 243 250 237 225 224 221 212 209 211 211 212 211 210 208 211 209 210 216 214 227 236 247 247 255 252 243 240 232 241 243 251 251 252 253 254 259 265 268 271
234 238 239 237 239 243 252 232 222 221 223 215 210 212 213 215 214 214 212 213 215 220 225 229 233 236 238 242 242 247 241 240 241 244 245 249 250 252 254 261 266 269 267 268
236 238 240 238 232 237 247 229 220 219 224 223 215 212 216 218 219 218 218 216 216 221 222 226 229 235 236 241 245 244 248 243 243 250 255 256 257 259 264 269 271 269 264 273
236 236 236 235 227 231 239 231 218 220 226 225 222 216 216 219 222 222 222 221 223 227 224 221 226 236 237 239 241 245 247 249 250 243 253 250 254 258 262 267 270 271 272 276
230 231 230 230 226 226 230 228 219 222 227 226 222 219 217 216 221 225 228 230 231 231 230 232 235 244 246 245 248 252 254 253 255 256 258 259 260 262 266 271 273 277 277 275
223 225 226 226 226 222 225 228 219 219 223 219 214 218 217 215 219 225 230 233 236 238 239 241 244 248 247 248 251 258 258 260 260 256 262 252 252 259 265 269 272 272 271 272
220 222 224 224 222 221 222 225 219 216 218 210 203 214 222 225 225 226 229 233 236 238 241 244 246 249 251 254 255 257 258 261 259 263 262 249 248 256 260 267 270 271 265 266
217 219 221 222 221 219 219 221 222 217 218 217 220 223 229 228 223 225 227 231 236 237 240 241 241 245 248 248 245 250 259 259 260 256 259 259 258 253 264 267 267 266 269 276
214 216 218 218 220 218 217 219 220 221 219 219 220 222 228 223 222 225 228 231 235 235 237 238 238 239 241 245 246 247 252 255 256 256 257 258 258 258 260 263 267 271 275 273
213 215 217 219 220 218 217 218 220 221 218 219 222 222 223 224 228 231 233 237 239 238 239 241 243 248 245 247 248 247 248 252 255 257 258 258 257 259 261 264 266 269 269 270
207 210 215 219 221 218 216 216 219 221 221 218 220 219 222 226 229 232 233 237 240 242 243 245 244 246 246 246 248 249 251 252 254 255 255 256 256 256 256 260 265 270 276 278
206 209 212 216 220 219 216 214 218 220 221 218 215 213 216 225 228 232 237 238 242 244 243 243 241 244 246 246 248 250 252 255 257 258 258 259 255 249 254 263 262 261 271 274
203 206 211 214 217 217 213 212 216 216 215 215 214 215 219 225 234 239 237 241 242 242 241 240 239 241 243 245 246 249 255 255 252 261 254 265 250 242 248 262 279 285 290 287
199 202 209 206 209 210 211 211 215 216 214 215 214 219 221 227 236 239 232 237 243 248 244 242 246 243 250 252 250 242 245 254 262 273 275 278 283 282 281 284 285 285 282 287
195 195 199 204 214 210 206 208 214 216 211 214 216 221 222 228 233 238 237 239 240 241 244 246 258 255 256 251 255 254 256 260 263 267 272 279 284 288 286 286 290 294 293 284
195 191 194 193 205 204 208 205 209 215 204 208 213 217 218 226 232 236 237 248 251 253 246 250 255 261 256 249 257 262 258 274 257 267 269 269 271 277 278 285 291 293 292 289
Height
5803 5805 5806 5809 5810 5811 5812 5812 5815 5816 5818 5822 5824 5828 5831 5834 5838 5843 5846 5851 5856 5861 5864 5867 5870 5873 5874 5878 5881 5885 5890 5898 5902 5907 5906 5909 5912 5916 5919 5921 5922 5920 5919 5921
5798 5800 5802 5803 5804 5806 5806 5808 5809 5810 5812 5815 5819 5823 5827 5829 5833 5838 5843 5847 5852 5857 5861 5865 5867 5869 5871 5875 5879 5883 5886 5892 5898 5901 5906 5907 5910 5912 5914 5917 5918 5919 5918 5918
5793 5795 5796 5797 5799 5800 5802 5803 5804 5804 5806 5810 5814 5817 5820 5824 5828 5834 5839 5844 5849 5855 5859 5862 5865 5867 5869 5873 5876 5879 5884 5891 5895 5904 5907 5908 5907 5909 5910 5912 5917 5915 5914 5911
5788 5790 5791 5792 5793 5794 5797 5797 5798 5798 5801 5804 5808 5812 5815 5818 5823 5830 5836 5842 5847 5852 5857 5860 5863 5866 5869 5872 5874 5877 5881 5886 5891 5897 5898 5901 5903 5905 5906 5907 5909 5908 5908 5904
5782 5784 5786 5787 5789 5790 5791 5792 5793 5794 5796 5800 5803 5806 5810 5814 5819 5827 5832 5838 5843 5849 5854 5859 5862 5866 5869 5871 5874 5877 5880 5884 5887 5890 5894 5897 5900 5900 5901 5902 5902 5902 5901 5899
5777 5779 5781 5783 5784 5785 5786 5787 5789 5790 5793 5796 5799 5802 5806 5810 5817 5823 5829 5835 5841 5846 5851 5856 5860 5863 5866 5870 5873 5876 5879 5882 5885 5888 5890 5893 5894 5896 5896 5897 5896 5896 5896 5894
5772 5774 5776 5778 5779 5780 5782 5783 5785 5786 5789 5792 5796 5799 5803 5807 5813 5820 5825 5831 5837 5843 5847 5852 5857 5860 5864 5867 5869 5873 5876 5878 5881 5885 5886 5886 5889 5889 5890 5890 5890 5889 5888 5886
5768 5770 5772 5773 5774 5775 5777 5779 5781 5783 5786 5789 5792 5796 5800 5804 5809 5816 5822 5827 5832 5837 5843 5848 5851 5855 5859 5862 5865 5868 5871 5874 5876 5877 5880 5883 5881 5882 5883 5884 5884 5881 5881 5879
5763 5765 5767 5769 5770 5771 5773 5774 5776 5779 5782 5785 5789 5792 5796 5801 5806 5812 5818 5824 5828 5833 5834 5840 5845 5851 5855 5855 5859 5862 5865 5867 5870 5869 5874 5876 5876 5872 5875 5877 5878 5874 5874 5872
5759 5761 5763 5764 5766 5767 5769 5770 5773 5775 5777 5781 5785 5789 5793 5797 5802 5808 5813 5819 5825 5829 5832 5837 5840 5841 5845 5848 5850 5854 5857 5860 5861 5863 5863 5868 5863 5866 5868 5870 5874 5867 5866 5866
5754 5757 5758 5760 5762 5763 5765 5766 5768 5771 5773 5776 5780 5784 5789 5793 5798 5803 5809 5815 5819 5824 5828 5833 5834 5838 5838 5844 5845 5847 5849 5851 5853 5853 5854 5857 5856 5858 5860 5860 5859 5859 5860 5860
5749 5752 5754 5756 5758 5759 5760 5762 5764 5766 5769 5773 5776 5780 5785 5789 5794 5799 5803 5808 5813 5818 5822 5825 5828 5831 5834 5835 5839 5839 5842 5844 5847 5848 5851 5848 5849 5850 5850 5851 5852 5852 5853 5853
5744 5746 5749 5751 5753 5754 5756 5757 5760 5762 5765 5769 5771 5775 5780 5784 5788 5793 5798 5802 5807 5811 5815 5818 5821 5824 5828 5830 5831 5833 5834 5837 5839 5841 5840 5841 5842 5843 5843 5843 5844 5845 5844 5845
5738 5741 5744 5746 5748 5750 5751 5753 5756 5759 5762 5764 5768 5771 5774 5779 5783 5788 5792 5797 5801 5805 5808 5811 5815 5817 5821 5822 5824 5827 5827 5831 5832 5834 5834 5835 5835 5835 5836 5836 5836 5836 5836 5836
5731 5735 5738 5740 5743 5746 5748 5750 5752 5755 5758 5760 5763 5766 5770 5773 5777 5781 5786 5790 5795 5798 5802 5805 5808 5811 5814 5815 5818 5820 5821 5822 5825 5826 5824 5827 5827 5828 5828 5828 5828 5827 5828 5827
5724 5729 5732 5735 5738 5742 5744 5746 5748 5751 5753 5756 5758 5762 5765 5768 5772 5775 5780 5784 5788 5792 5796 5799 5802 5805 5808 5809 5811 5812 5813 5815 5816 5817 5818 5818 5819 5820 5820 5819 5819 5818 5818 5818
5716 5722 5726 5730 5733 5737 5740 5743 5745 5747 5749 5752 5755 5757 5760 5763 5767 5770 5773 5778 5781 5785 5788 5792 5794 5797 5798 5800 5803 5805 5805 5805 5806 5807 5808 5809 5810 5811 5812 5811 5811 5811 5810 5810
5710 5715 5720 5724 5728 5732 5735 5738 5740 5743 5746 5749 5752 5754 5757 5759 5762 5765 5768 5771 5774 5777 5780 5784 5786 5788 5790 5792 5795 5796 5795 5795 5796 5796 5797 5799 5801 5803 5803 5803 5803 5802 5802 5802
5703 5709 5714 5718 5722 5726 5730 5733 5736 5739 5744 5745 5748 5751 5753 5755 5758 5761 5764 5766 5768 5771 5773 5776 5779 5780 5783 5785 5787 5787 5787 5787 5788 5788 5789 5791 5792 5794 5795 5794 5794 5794 5794 5795
5697 5703 5708 5712 5716 5720 5725 5729 5732 5735 5738 5741 5744 5747 5749 5752 5754 5756 5760 5761 5763 5766 5769 5770 5773 5775 5776 5778 5779 5780 5780 5781 5781 5781 5783 5784 5785 5786 5787 5787 5787 5786 5787 5787
5691 5697 5702 5706 5710 5715 5720 5724 5728 5731 5734 5737 5740 5743 5745 5748 5750 5752 5754 5756 5759 5762 5764 5766 5767 5768 5770 5771 5773 5773 5774 5775 5775 5776 5777 5778 5779 5779 5779 5779 5779 5780 5780 5780
5686 5691 5695 5700 5705 5709 5714 5719 5724 5727 5730 5733 5736 5740 5742 5744 5746 5747 5750 5752 5754 5756 5758 5759 5761 5761 5763 5765 5766 5767 5767 5768 5769 5770 5770 5771 5771 5772 5772 5773 5773 5773 5773 5772
5681 5686 5691 5695 5700 5704 5709 5715 5719 5723 5726 5729 5732 5736 5738 5740 5742 5744 5745 5746 5749 5751 5752 5753 5754 5755 5757 5758 5759 5760 5761 5762 5763 5763 5763 5764 5764 5765 5765 5765 5765 5764 5764 5764
5677 5681 5687 5691 5695 5700 5705 5710 5714 5719 5721 5725 5728 5731 5734 5737 5738 5740 5741 5743 5745 5745 5746 5747 5748 5749 5750 5752 5754 5755 5755 5756 5756 5756 5757 5757 5757 5757 5757 5756 5755 5755 5755 5754
5673 5678 5683 5688 5692 5695 5699 5705 5710 5714 5717 5720 5724 5727 5730 5732 5734 5736 5737 5738 5740 5740 5740 5742 5743 5744 5745 5747 5749 5749 5750 5750 5751 5750 5749 5750 5749 5749 5748 5748 5748 5748 5747 5746
5670 5676 5681 5685 5688 5692 5696 5700 5704 5708 5712 5716 5720 5722 5726 5728 5730 5731 5732 5734 5734 5734 5736 5737 5738 5739 5740 5741 5742 5743 5743 5744 5743 5743 5742 5742 5742 5741 5741 5742 5741 5739 5738 5737
5668 5673 5678 5683 5686 5689 5692 5695 5700 5703 5707 5710 5715 5718 5721 5725 5727 5727 5728 5728 5729 5729 5731 5732 5733 5734 5735 5736 5737 5736 5737 5736 5734 5735 5736 5736 5736 5736 5735 5734 5733 5731 5729 5728